THORAD DELTA 1 DEB, 9988

Orbit data source: Space-Track

THORAD DELTA 1 DEB, 9988 is space debris in LEO originally from a launch on Fri, 15 Nov 1974 UTC launched from the Air Force Western Test Range (AFWTR). Debris objects in space refer to the collection of defunct objects orbiting the Earth. Examples of debris include non-operational satellites, rocket bodies, and fragments generated from explosions, collisions, or faulty payload assembly.

Loading next visibility...
Identifier
9988, 1974-089EF
Orbit
LEO
Country
Flag of USUS
Related business
Manufacturer
Unknown
Mission
Spacecraft
Bus & Motor
Unknown
Mass
Unknown
Launch date (UTC)
1974-11-15 (51 years ago)
Launch vehicle
Unknown
Launch site
Air Force Western Test Range (AFWTR)
Object type
Payload
Rocket body
Debris
Shape & HBR
Unknown shape, 0.1 m
Radar Cross Section
Small (<0.1 m²)

Expand to show TLE details & history
Last TLE update: 1 day ago

TLE from 1 day ago
0 THORAD DELTA 1 DEB
1 09988U 74089EF  26048.01607342  .00002023  00000-0  12734-2 0  9991
2 09988 103.0456  67.3080 0218262 161.4948 199.4294 13.95179020487704
Epoch: 2026-02-17T00:23Z
TLE epoch observation values (Epoch: 2026-02-17T00:23:08.743Z)
Latitude
-0.00002°
Longitude
-85.48055°
Altitude
1,063.675 km
Speed
7.244 km/s
True Right ascension
04h 29m 13s
True Declination
0° 00' 00"
Sunlit
Object was in daylight at epoch
Visualization orbit readout
Latitude
Unknown
Longitude
Unknown
Altitude
Unknown
Speed
Unknown
Apparent Right ascension
Unknown
Apparent Declination
Unknown
Sunlit
N/A
Visualization observer readout
Local Sidereal Time
05:38:50
Azimuth
Unknown
Elevation
Unknown
Doppler factor
Unknown
Orbital elements
Apogee altitude
1,067.01 km
Perigee altitude
748.953 km
Semi-major axis
7,286.118 km
Eccentricity
0.02183
Inclination
103.0456°
RAAN
67.308°
Arg. of periapsis
161.4948°
True anomaly
198.61834°
Mean anomaly
199.4294°
Eccentric anomaly
199.02181°
Mean motion
3.48979 °/min
Orbital period
103.16 mins
BSTAR
0.0012734

Documentation

Showing up to 5 results
|